[ hide orbit diagram ]
For accurate long-term ephemerides, please instead use our Horizons system.This orbit viewer was implemented using two-body methods, and hence should not be used for determining accurate long-term trajectories (over several years or decades) or planetary encounter circumstances.
Orbital Elements at Epoch 2459200.5 (2020-Dec-17.0) TDB
Reference: JPL 9 (heliocentric ecliptic J2000)
Element | Value | Uncertainty (1-sigma) | Units |
e | .05387978609759448 | 1.0785e-07 | |
a | 2.591965124081327 | 2.9341e-08 | au |
q | 2.4523105976234 | 2.7587e-07 | au |
i | 8.88425806081322 | 6.5481e-06 | deg |
node | 207.5181194238298 | 5.2305e-05 | deg |
peri | 261.9334918914389 | 0.00012484 | deg |
M | 75.25604852393654 | 0.00011241 | deg |
tp | 2458881.874105578688 (2020-Feb-02.37410558) | 0.00047424 | TDB |
period | 1524.200702023152 4.17 | 2.5881e-05 7.086e-08 | d yr |
n | .2361893676614589 | 4.0106e-09 | deg/d |
Q | 2.731619650539254 | 3.0922e-08 | au |
|
| | Orbit Determination Parameters
Additional Information
|
[ hide covariance matrix ]
Orbital Elements at Epoch 2457044.5 (2015-Jan-22.0) TDB
Reference: JPL 9 (heliocentric ecliptic J2000)
Element | Value | Uncertainty (1-sigma) | Units |
e | .05276821329200045 | 1.1051e-07 | |
q | 2.455327474308158 | 2.8247e-07 | au |
tp | 2457362.103569956556 (2015-Dec-05.60356996) | 0.00046959 | TDB |
node | 207.5588704543638 | 5.2356e-05 | deg |
peri | 263.091303698113 | 0.00012531 | deg |
i | 8.878454035784806 | 6.5483e-06 | deg |
|
| | Orbit Determination Parameters
Additional Information
|
Orbit Covariance (6×6)
|
|
e |
q |
tp |
node |
peri |
i |
e |
1.221222395815164E-14 |
-3.107120094569385E-14 |
4.252667516259769E-11 |
3.611086204380903E-13 |
1.039442468502429E-11 |
-6.077850266116222E-14 |
q |
-3.107120094569385E-14 |
7.979169174180642E-14 |
-1.068904520880524E-10 |
-9.110279086899968E-13 |
-2.61731192157615E-11 |
1.554372391833965E-13 |
tp |
4.252667516259769E-11 |
-1.068904520880524E-10 |
2.205166383566357E-7 |
1.535902185520612E-9 |
5.357073227827013E-8 |
-2.304117271338582E-10 |
node |
3.611086204380903E-13 |
-9.110279086899968E-13 |
1.535902185520612E-9 |
2.74114049518767E-9 |
-2.322883917132203E-9 |
-1.596593899591093E-10 |
peri |
1.039442468502429E-11 |
-2.61731192157615E-11 |
5.357073227827013E-8 |
-2.322883917132203E-9 |
1.570277017689248E-8 |
9.978234838416041E-11 |
i |
-6.077850266116222E-14 |
1.554372391833965E-13 |
-2.304117271338582E-10 |
-1.596593899591093E-10 |
9.978234838416041E-11 |
4.287964151795774E-11 |
|
Physical Parameter Table
Parameter |
Symbol |
Value |
Units |
Sigma |
Reference |
Notes |
absolute magnitude |
H |
17.1 |
|
n/a |
MPO455392 |
|
|
324483 (2006 UL135) Discovered 2006-Oct-19 by Spacewatch at Kitt Peak |
Reference: 20120406/Numbers.arc | Last Updated: 2012-04-09 |
|
[ show close-approach data ]
|